Вернуться в каталог

ONEWEB-0519

АктивенСвязьPO
NORAD 54137·PAYLOAD·🇬🇧 United Kingdom

Запущен Oct 22, 2022 с Satish Dhawan Space Centre

Loading…

Ближайшие Пролёты (ближайшие 24 часа)

TLE

СвежийSource: CelesTrak SupGP

Эпоха: Sep 14, 2026, 19:26 UTC

1 54137C 22138AA  26257.81022407 -.00000281  00000+0 -70276-3 0  2576
2 54137  87.9105 287.1152 0002103  97.8093  15.6312 13.19724042    12

Отслеживайте ONEWEB-0519 в реальном времени с AllMySat

Download on the App Store